Meteo Giornale » Osservazioni meteo Stati Uniti (USA) » Antigo - Lang
ore: 03:35 - Osservazioni Meteo Antigo - Lang
Lat. 45° 9' N Lon. 87° 9' W Alt. metri s.l.m.
21 °C
Nebbia
Temp. 24 Ore
21 °C
31 °C
Nord
0 Km/h
Dew point 21 °C
Umidità 100 %
Visibilità 0 Km
Il sole sorge alle ore 06:10
Il sole tramonta alle ore 19:26
| Data e Ora | Cielo e Fenomeni | T °C | DP °C | Um. % | Pres. hPa | Vis. km | Vento km/h | |
|---|---|---|---|---|---|---|---|---|
| Oggi h: 03:35 | Nebbia | 21 | 21 | 100 | 1014 | 0 | N 0 | |
| Oggi h: 03:15 | Nebbia | 21 | 21 | 100 | 1014 | 2 | N 0 | |
| Oggi h: 02:55 | Nebbia | 21 | 21 | 100 | 1014 | 0 | N 0 | |
| Oggi h: 02:35 | Nebbia | 21 | 21 | 100 | 1014 | 2 | N 0 | |
| Oggi h: 02:15 | Nebbia | 21 | 21 | 100 | 1014 | 2 | N 0 | |
| Oggi h: 01:55 | Nebbia | 21 | 21 | 100 | 1014 | 2 | N 0 | |
| Oggi h: 01:35 | Nebbia | 21 | 21 | 100 | 1014 | 0 | N 0 | |
| Oggi h: 01:15 | Nebbia | 21 | 21 | 100 | 1014 | 2 | N 0 | |
| Oggi h: 00:55 | Nebbia | 21 | 21 | 100 | 1014 | 2 | N 0 | |
| Oggi h: 00:35 | Nebbia | 21 | 21 | 100 | 1014 | 0 | N 0 | |
| Oggi h: 00:15 | Nebbia | 21 | 21 | 100 | 1014 | 2 | N 0 | |
| Ieri h: 23:55 | Nebbia | 22 | 22 | 100 | 1014 | 2 | N 0 | |
| Ieri h: 23:35 | Nebbia | 22 | 22 | 100 | 1014 | 2 | N 0 | |
| Ieri h: 23:15 | Foschia | 22 | 22 | 100 | 1014 | 5 | N 0 | |
| Ieri h: 22:55 | Nebbia | 22 | 22 | 100 | 1014 | 2 | N 0 | |
| Ieri h: 22:35 | Foschia | 22 | 22 | 100 | 1014 | 5 | N 0 | |
| Ieri h: 22:15 | Sereno | 23 | 23 | 100 | 1014 | 11 | N 0 | |
| Ieri h: 21:55 | Foschia | 23 | 23 | 100 | 1014 | 5 | N 0 | |
| Ieri h: 21:35 | Nuvoloso | 24 | 24 | 100 | 1014 | 10 | N 0 | |
| Ieri h: 21:15 | Sereno | 24 | 24 | 100 | 1014 | 11 | N 0 | |
| Ieri h: 20:55 | Sereno | 24 | 24 | 100 | 1014 | 10 | N 0 | |
| Ieri h: 20:35 | Sereno | 25 | 25 | 100 | 1014 | 10 | N 0 | |
| Ieri h: 20:15 | Nuvoloso | 25 | 25 | 100 | 1013 | 10 | N 0 | |
| Ieri h: 19:55 | Sereno | 26 | 25 | 94 | 1013 | 10 | N 5.5 | |
| Ieri h: 19:35 | Sereno | 27 | 25 | 88 | 1012 | 10 | SO 7.4 | |
| Ieri h: 19:15 | Sereno | 28 | 26 | 88 | 1012 | 10 | N 0 | |
| Ieri h: 18:55 | Sereno | 29 | 25 | 79 | 1012 | 10 | N 0 | |
| Ieri h: 18:35 | Nuvoloso | 30 | 25 | 74 | 1012 | 10 | N 5.5 | |
| Ieri h: 18:15 | Nuvoloso | 30 | 25 | 74 | 1012 | 10 | O 7.4 | |
| Ieri h: 17:55 | Sereno | 31 | 25 | 70 | 1012 | 10 | O 7.4 | |
| Ieri h: 17:30 | Sereno | 30 | 25 | 74 | 1012 | 10 | O 9.3 | |
| Ieri h: 17:15 | Sereno | 29 | 25 | 79 | 1011 | 10 | O/SO 9.3 | |
| Ieri h: 16:55 | Nuvoloso | 30 | 25 | 74 | 1012 | 10 | O/SO 7.4 | |
| Ieri h: 16:35 | Nuvoloso | 30 | 25 | 74 | 1012 | 10 | O/SO 11.1 | |
| Ieri h: 16:15 | Nuvoloso | 30 | 26 | 79 | 1012 | 10 | O/SO 7.4 | |
| Ieri h: 15:55 | Nuvoloso | 30 | 25 | 74 | 1011 | 10 | O/SO 7.4 | |
| Ieri h: 15:35 | Nuvoloso | 30 | 25 | 74 | 1011 | 10 | N 5.5 | |
| Ieri h: 15:15 | Nuvoloso | 30 | 25 | 74 | 1011 | 10 | S/SO 9.3 | |
| Ieri h: 14:55 | Nuvoloso | 30 | 25 | 74 | 1011 | 10 | S 11.1 | |
| Ieri h: 14:35 | Nuvoloso | 30 | 25 | 74 | 1011 | 10 | S/SO 11.1 | |
| Ieri h: 14:15 | Nuvoloso | 29 | 25 | 79 | 1012 | 10 | S 7.4 | |
| Ieri h: 13:55 | Sereno | 29 | 25 | 79 | 1012 | 10 | N 5.5 | |
| Ieri h: 13:35 | Sereno | 28 | 24 | 78 | 1011 | 10 | N 0 | |
| Ieri h: 13:15 | Nuvoloso | 28 | 24 | 78 | 1012 | 10 | N 0 | |
| Ieri h: 12:55 | Molto Nuvoloso | 27 | 24 | 83 | 1012 | 10 | N 0 | |
| Ieri h: 12:35 | Molto Nuvoloso | 27 | 24 | 83 | 1012 | 10 | N 5.5 | |
| Ieri h: 12:15 | Coperto | 26 | 23 | 83 | 1012 | 10 | N 5.5 | |
| Ieri h: 11:50 | Coperto | 25 | 23 | 88 | 1012 | 10 | N 0 | |
| Ieri h: 11:35 | Coperto | 25 | 23 | 88 | 1013 | 10 | N 5.5 | |
| Ieri h: 11:15 | Coperto | 24 | 23 | 94 | 1012 | 11 | N 0 | |
| Ieri h: 10:55 | Coperto | 24 | 23 | 94 | 1012 | 11 | N 0 | |
| Ieri h: 10:35 | Coperto | 24 | 23 | 94 | 1012 | 11 | S/SE 9.3 | |
| Ieri h: 10:15 | Foschia | 24 | 23 | 94 | 1012 | 8 | SE 11.1 | |
| Ieri h: 09:55 | Foschia | 23 | 23 | 100 | 1012 | 8 | SE 14.8 | |
| Ieri h: 09:35 | Foschia | 23 | 23 | 100 | 1012 | 6 | SE 14.8 | |
| Ieri h: 09:15 | Foschia | 22 | 22 | 100 | 1012 | 5 | E/SE 14.8 | |
| Ieri h: 08:55 | Foschia | 22 | 22 | 100 | 1012 | 5 | E/SE 11.1 | |
| Ieri h: 08:35 | Foschia | 22 | 22 | 100 | 1012 | 3 | SE 13 | |
| Ieri h: 08:10 | Foschia | 22 | 22 | 100 | 1012 | 2 | SE 11.1 | |
| Ieri h: 07:55 | Foschia | 22 | 22 | 100 | 1012 | 2 | SE 16.7 | |
| Ieri h: 07:35 | Foschia | 22 | 22 | 100 | 1012 | 5 | E/SE 16.7 | |
| Ieri h: 07:15 | Foschia | 22 | 22 | 100 | 1012 | 2 | SE 11.1 | |
| Ieri h: 06:55 | Foschia | 22 | 22 | 100 | 1012 | 5 | SE 20.3 | |
| Ieri h: 06:35 | Foschia | 21 | 21 | 100 | 1012 | 2 | SE 11.1 | |
| Ieri h: 06:15 | Foschia | 21 | 21 | 100 | 1012 | 5 | E/SE 14.8 | |
| Ieri h: 05:55 | Nebbia | 22 | 22 | 100 | 1012 | 2 | E/SE 13 | |
| Ieri h: 05:35 | Nebbia | 21 | 21 | 100 | 1012 | 2 | E/SE 13 | |
| Ieri h: 05:15 | Nebbia | 21 | 21 | 100 | 1012 | 2 | E/SE 7.4 | |
| Ieri h: 04:55 | Foschia | 21 | 21 | 100 | 1013 | 2 | E/SE 11.1 | |
| Ieri h: 04:35 | Foschia | 21 | 21 | 100 | 1012 | 5 | E 13 | |



